User: anonymous   Login
Location: Austin
(30.3000°N, 97.7500°W)
Time: 22:35:31
(UTC-05:00)
Language:

Fermi - Orbit

View from above orbital plane
View from above orbital plane
View from above satellite
View from above satellite

Ground track
Ground track

The orbit is defined by the following mean orbital elements,

1 33053U          26137.84489233 +.00000000 +00000-0 +75474-4 0 00008
2 33053  25.5824  55.1315 0008054 330.3685  29.6396 15.23761117    06
Epoch (UTC): 17 May 2026 20:16:38
Eccentricity: 0.0008054
inclination: 25.5824°
perigee height: 489 km
apogee height: 500 km
right ascension of ascending node: 55.1315°
argument of perigee: 330.3685°
revolutions per day: 15.23761117
mean anomaly at epoch: 29.6396°

The dashed part of the orbit path shows where the satellite is in the earth's shadow,  

DLR